Wind_Speed
7 6 6 5 3 1 0 1 2 4 6 8 8 9 10 11 10 11 11 11 11 11 11 12 11 10 11 11 11 11 10 11 11 10 10 10 10 11 11 12 12 12 13 13 13 13 13 13 13
7 6 6 6 4 2 1 2 4 6 8 9 10 11 12 12 12 12 13 12 11 11 11 11 11 10 10 10 10 10 10 11 11 10 10 11 11 11 12 12 12 12 13 14 14 14 14 14 14
7 6 5 6 5 3 2 3 5 7 9 10 11 12 13 13 13 13 13 13 12 11 11 11 11 11 10 10 10 10 11 11 11 11 11 11 12 12 12 12 12 13 13 14 14 14 15 15 15
6 6 6 5 4 2 3 5 6 7 9 11 12 13 14 14 14 14 14 14 13 12 12 12 11 11 11 11 11 11 11 11 11 11 12 12 13 13 13 13 13 14 14 14 14 14 15 16 16
7 6 5 5 4 4 5 7 9 10 10 12 14 15 15 16 15 15 16 15 14 13 13 13 12 12 11 12 12 13 13 13 12 12 13 13 14 14 15 14 14 14 14 15 15 15 15 16 16
7 7 6 5 3 4 6 8 10 11 12 13 15 16 17 17 16 15 16 16 16 15 14 14 12 11 11 12 13 14 14 14 14 14 14 14 15 16 16 15 15 15 15 15 15 15 15 15 16
8 7 6 3 2 3 6 10 12 13 13 15 16 17 16 16 16 16 15 14 15 16 16 15 14 14 12 12 13 14 14 14 14 15 15 14 15 15 15 15 16 16 16 16 16 16 16 16 16
7 6 5 3 3 4 7 10 12 14 15 15 15 16 16 16 17 16 14 13 15 16 16 15 15 14 13 13 13 14 15 15 15 15 15 15 15 16 16 16 16 17 17 17 16 16 16 16 17
6 5 5 4 5 7 9 12 13 15 16 16 15 15 16 16 17 16 15 14 14 16 16 15 15 15 14 14 15 15 17 16 15 16 16 16 16 17 17 17 18 18 18 18 18 17 16 16 17
6 4 4 4 7 9 11 12 15 15 15 16 15 15 16 17 17 16 16 16 16 17 17 16 17 18 17 16 16 16 17 17 17 17 17 17 18 18 18 18 18 17 17 18 18 17 17 17 17
6 3 3 4 7 10 12 14 14 15 16 16 16 15 15 16 16 16 17 18 17 17 17 16 17 18 18 17 17 17 18 18 18 19 19 19 19 20 18 18 18 19 18 17 18 18 18 18 19
6 4 4 5 7 9 12 13 14 15 16 16 16 15 15 16 16 17 17 17 18 18 17 17 17 17 18 18 18 18 18 18 19 20 20 20 20 20 19 18 18 19 19 18 19 19 19 19 19
4 3 4 6 9 11 12 13 14 15 16 17 16 15 15 16 16 17 16 18 18 18 18 18 18 18 19 19 19 18 18 18 19 20 20 21 20 20 20 19 19 20 19 19 20 19 18 19 19
2 4 5 6 9 11 13 14 15 17 18 16 16 16 16 17 17 17 19 18 18 18 19 19 19 19 19 19 19 18 19 19 19 20 21 20 19 19 19 21 21 21 20 20 20 18 18 18 20
3 3 5 6 9 11 14 15 17 18 18 17 17 18 19 20 20 20 18 18 18 18 18 18 18 19 19 20 20 20 20 20 21 20 20 20 20 20 20 21 22 21 21 21 20 19 19 19 20
3 4 6 8 10 12 14 16 18 19 19 18 18 19 20 21 22 22 21 19 18 18 18 17 17 18 19 20 19 20 21 21 21 20 20 21 20 20 21 22 22 22 21 21 21 20 21 21 22
3 6 8 10 11 13 14 16 19 20 19 18 18 19 20 21 22 22 21 20 19 19 19 19 18 18 19 20 21 21 22 21 21 21 21 21 21 21 22 22 22 22 22 21 21 21 22 22 21
5 7 9 10 11 13 15 16 19 18 18 18 19 20 20 20 20 20 20 21 22 21 20 20 20 20 20 21 21 22 22 22 21 21 21 22 22 22 23 23 23 22 21 21 21 22 22 22 22
7 8 10 11 11 14 15 16 17 18 18 19 20 21 21 22 22 22 21 21 22 21 20 20 20 21 21 21 22 22 22 23 22 22 22 22 22 23 23 23 23 23 23 22 22 22 22 22 22
9 9 10 11 13 15 17 17 17 18 19 19 20 21 22 23 23 24 24 24 23 21 20 21 21 21 22 23 23 21 21 22 22 22 23 23 22 23 22 22 23 23 23 22 22 21 21 22 22
10 11 12 12 14 16 18 18 18 19 19 19 20 22 23 23 23 24 24 23 22 22 21 20 19 19 19 20 20 20 20 20 20 21 21 22 22 22 22 22 22 23 22 22 22 21 22 21 23
11 12 14 15 15 17 17 17 16 18 19 20 20 21 23 24 23 24 24 23 23 22 21 21 19 19 19 19 19 18 18 18 18 19 19 21 21 21 21 21 21 22 22 21 21 22 22 21 22
12 12 14 14 15 16 16 17 17 18 19 19 20 21 22 23 23 23 23 22 21 21 21 20 19 17 17 17 17 16 16 16 17 18 19 19 20 20 20 21 21 21 21 22 21 22 22 22 21
12 13 12 13 14 15 15 16 17 18 19 19 19 21 21 21 21 21 22 22 21 19 17 16 15 16 16 16 16 16 16 16 17 18 18 19 20 20 20 20 19 19 20 21 21 21 22 22 21
12 13 12 12 12 12 14 16 17 19 20 20 21 22 20 20 20 21 21 20 20 19 16 15 15 15 15 15 15 15 15 16 17 18 19 20 20 19 19 19 18 18 19 20 20 19 20 21 21
12 12 12 11 11 12 14 16 18 19 20 19 20 20 19 19 20 20 20 21 20 18 16 15 15 15 14 14 14 14 15 16 17 18 19 19 19 19 18 18 18 17 18 18 18 18 18 20 20
12 11 11 11 12 12 14 15 17 19 19 20 20 19 19 20 20 20 20 20 19 18 17 15 15 15 14 14 14 14 16 17 17 18 18 18 19 19 18 18 19 19 18 18 18 17 18 19 20
11 11 11 12 12 13 13 15 18 19 19 19 19 18 18 18 19 18 18 18 18 18 17 16 16 16 14 14 14 15 16 17 18 18 18 18 18 17 17 17 17 17 17 17 17 17 18 19 19
11 11 12 12 12 14 14 16 18 19 19 19 19 18 18 18 19 19 18 18 17 17 18 17 17 16 15 15 15 16 17 17 17 17 17 16 17 16 16 16 15 16 16 17 18 18 18 19 20
12 11 11 12 12 13 15 16 17 17 18 19 18 17 18 19 19 18 18 17 17 17 18 17 17 17 16 16 16 16 17 17 17 16 16 16 16 15 15 15 15 15 16 16 17 18 18 19 20
Wind_Direction
185 184 182 176 154 113 186 312 325 315 312 313 310 305 303 305 308 308 310 311 315 316 314 314 308 299 292 286 284 285 284 285 284 281 281 281 282 282 279 279 278 274 271 270 268 268 266 264 263
191 192 191 183 174 184 219 280 303 303 305 308 301 298 300 302 306 306 306 310 314 314 314 315 312 301 292 284 280 281 283 284 284 280 280 280 281 281 278 277 276 277 274 269 266 266 266 266 266
194 199 193 189 198 215 253 292 308 305 301 304 298 297 299 299 303 303 304 305 309 309 313 313 307 297 290 284 282 281 281 284 283 282 280 279 278 278 277 277 275 275 274 271 268 265 265 266 266
195 202 205 210 226 254 282 303 308 307 303 304 302 299 300 300 302 304 302 300 302 306 309 308 303 297 291 287 287 283 278 280 281 280 280 278 276 277 278 276 276 275 272 270 268 269 267 265 265
196 209 214 225 240 269 284 305 310 306 306 305 303 302 303 303 302 300 297 297 298 300 302 304 299 292 291 289 287 286 278 277 279 280 282 279 276 276 278 278 279 276 272 270 269 270 269 265 266
201 214 225 229 253 290 296 302 306 303 304 302 302 302 303 303 301 300 294 292 295 299 298 299 297 288 284 283 287 285 280 278 276 277 279 280 278 277 278 278 279 277 273 270 270 267 268 266 266
205 222 222 217 268 304 304 305 305 308 310 307 305 307 307 306 302 300 295 293 297 296 292 291 293 289 282 282 283 281 278 280 279 275 276 280 281 279 281 280 280 280 276 269 268 267 267 267 266
201 214 201 226 275 298 302 309 312 311 313 314 315 314 311 308 303 300 293 294 293 292 291 291 290 287 282 282 281 279 278 279 279 280 276 277 278 279 280 280 280 277 273 269 266 268 269 269 267
199 206 219 257 287 298 306 312 312 308 310 313 310 310 311 307 301 298 295 294 293 292 290 288 286 283 282 281 280 279 278 277 278 281 281 278 278 278 279 278 276 273 269 267 265 268 268 266 265
196 205 234 271 295 304 301 305 306 306 308 309 311 311 309 306 303 299 297 297 295 293 289 288 282 279 279 279 277 277 277 276 278 278 279 278 277 275 276 275 274 271 271 269 265 266 267 264 263
200 223 245 282 296 301 302 305 304 305 309 311 311 314 311 308 304 301 296 293 291 289 290 289 283 278 279 280 276 277 276 277 277 276 276 275 275 274 273 274 272 271 273 269 264 267 269 267 265
218 251 287 303 308 311 313 318 313 309 310 311 313 315 313 310 304 299 292 290 288 288 286 285 284 279 281 281 281 281 278 277 276 275 277 274 274 271 272 274 269 269 270 270 267 269 268 266 265
216 257 291 306 311 318 317 317 318 311 310 312 312 314 313 312 310 305 297 294 292 291 287 286 283 280 280 280 283 282 280 278 276 277 276 275 274 270 269 270 270 271 269 269 268 269 267 267 266
254 281 295 306 308 311 314 315 317 313 312 314 313 314 316 320 315 310 302 299 298 295 290 287 285 280 278 281 283 280 278 277 275 274 275 277 276 274 271 271 271 270 268 268 267 268 270 271 269
282 280 297 308 311 310 311 313 314 313 310 312 312 313 318 321 316 312 308 302 299 296 291 287 284 282 282 283 284 282 280 276 277 277 278 277 277 275 273 273 271 269 269 270 268 269 272 270 270
300 300 313 312 316 318 316 315 314 309 308 306 307 308 314 319 314 313 312 307 303 300 297 289 284 287 285 288 288 287 285 282 284 282 281 278 277 277 275 275 271 270 269 269 271 269 271 270 271
290 303 312 315 318 314 314 315 314 312 309 309 309 309 311 315 313 312 312 310 306 303 299 294 289 288 290 291 290 288 288 287 286 286 282 279 278 278 277 274 270 269 268 268 270 270 271 270 270
292 307 307 311 318 313 311 308 309 312 308 309 312 313 314 318 319 318 315 309 305 302 301 298 294 290 290 290 288 287 286 287 286 286 284 283 282 281 278 274 270 270 270 271 269 270 272 271 270
308 310 306 310 313 312 311 307 307 308 305 308 312 315 317 320 319 318 317 309 304 301 300 297 292 290 288 288 287 285 284 284 284 284 284 284 282 281 279 273 271 269 271 272 271 270 269 270 269
306 299 299 300 304 309 309 307 301 298 302 309 312 315 314 316 315 317 315 310 307 305 299 297 293 292 289 287 287 287 287 284 285 285 284 284 283 281 281 278 276 274 274 273 271 271 271 268 267
299 295 296 300 306 307 306 303 300 301 305 308 311 313 312 314 314 314 316 312 310 308 302 299 297 296 294 292 291 289 288 287 287 286 285 285 284 283 280 280 278 276 274 273 271 271 272 269 268
296 297 299 300 303 306 303 300 304 306 308 310 312 313 313 314 315 314 316 314 314 312 306 300 298 296 295 295 294 292 290 289 289 290 288 287 286 285 282 281 278 276 274 272 273 274 272 270 270
300 300 298 299 298 297 300 300 306 312 315 314 313 315 318 318 317 316 318 320 317 313 308 304 299 294 299 300 298 298 295 292 291 291 290 290 289 288 286 284 282 278 275 273 274 273 271 271 271
294 294 296 297 294 289 296 299 306 315 321 322 323 321 320 318 317 319 321 323 322 319 312 310 309 306 307 303 302 299 296 293 291 290 289 290 290 289 288 284 282 279 276 273 274 273 271 271 272
293 292 295 296 294 292 297 302 307 316 319 318 321 323 325 321 322 328 329 331 329 327 323 315 317 317 311 307 305 303 301 296 294 292 291 292 290 289 287 282 281 279 278 277 276 274 271 273 274
300 295 295 298 302 302 305 308 312 316 319 320 322 326 332 329 329 330 329 329 331 334 332 325 325 322 318 310 307 304 304 300 299 297 295 294 290 290 287 281 279 278 279 279 279 278 275 276 277
305 300 299 302 303 306 312 314 314 317 318 321 324 327 330 329 330 329 328 327 330 332 332 330 328 324 319 314 310 308 305 303 305 304 300 296 291 289 288 283 279 279 277 276 279 280 278 279 279
299 299 296 299 304 309 315 317 320 323 322 326 328 330 331 332 334 334 333 331 330 332 335 335 332 327 322 319 316 315 314 312 310 308 304 300 296 291 290 286 283 278 275 275 277 281 280 279 279
302 296 294 297 301 309 314 317 322 324 327 329 332 332 334 337 337 337 337 336 333 332 336 335 332 329 325 322 320 318 318 317 315 313 308 302 298 296 292 289 285 282 281 282 281 281 280 280 280
306 300 297 300 305 310 314 318 324 325 328 330 332 336 337 337 337 337 336 336 335 333 333 332 332 331 329 326 323 321 320 319 318 318 314 311 306 300 294 288 285 284 284 284 284 282 284 284 283
Height
5888 5889 5890 5891 5892 5892 5891 5891 5891 5890 5890 5890 5889 5889 5888 5888 5888 5889 5886 5884 5883 5882 5881 5880 5880 5879 5879 5878 5878 5877 5877 5877 5876 5875 5874 5874 5873 5872 5871 5870 5870 5869 5869 5869 5869 5868 5868 5868 5868
5887 5888 5890 5890 5890 5890 5890 5889 5889 5889 5889 5888 5887 5887 5886 5886 5886 5885 5883 5882 5881 5880 5879 5879 5878 5877 5877 5876 5876 5876 5875 5875 5874 5873 5873 5872 5871 5870 5869 5869 5867 5867 5867 5867 5866 5866 5866 5865 5865
5886 5887 5889 5889 5888 5889 5889 5888 5888 5887 5887 5886 5886 5885 5885 5884 5883 5882 5881 5880 5879 5878 5878 5877 5876 5876 5875 5874 5874 5874 5873 5873 5872 5871 5871 5870 5869 5868 5867 5866 5865 5865 5864 5864 5864 5864 5863 5863 5863
5886 5887 5888 5888 5888 5888 5887 5886 5886 5886 5886 5885 5884 5883 5882 5882 5880 5880 5879 5878 5877 5876 5876 5875 5874 5873 5873 5872 5872 5871 5871 5871 5870 5869 5868 5868 5867 5866 5865 5864 5863 5862 5862 5862 5862 5861 5861 5860 5860
5885 5886 5887 5886 5887 5886 5886 5885 5885 5884 5883 5883 5882 5880 5880 5879 5879 5877 5876 5875 5874 5874 5873 5872 5871 5871 5870 5870 5869 5869 5869 5868 5867 5867 5866 5865 5864 5863 5862 5861 5861 5860 5859 5859 5859 5858 5858 5857 5857
5885 5885 5886 5885 5885 5885 5884 5884 5884 5882 5881 5881 5879 5878 5877 5876 5875 5874 5873 5872 5871 5870 5870 5869 5868 5867 5867 5866 5866 5866 5866 5865 5864 5864 5863 5862 5861 5860 5859 5858 5858 5857 5856 5856 5855 5855 5854 5854 5853
5884 5884 5884 5884 5884 5883 5883 5883 5882 5880 5879 5878 5877 5875 5873 5872 5871 5870 5869 5868 5867 5867 5866 5866 5865 5864 5863 5863 5863 5862 5862 5862 5861 5860 5859 5859 5858 5857 5856 5855 5854 5854 5853 5852 5852 5852 5851 5851 5850
5883 5883 5882 5882 5882 5882 5881 5880 5879 5878 5877 5875 5873 5871 5870 5869 5868 5866 5865 5864 5863 5863 5862 5862 5861 5861 5860 5859 5859 5859 5859 5858 5857 5856 5856 5855 5854 5854 5853 5852 5851 5850 5849 5849 5848 5848 5848 5848 5847
5882 5883 5881 5880 5880 5880 5879 5878 5877 5875 5874 5872 5870 5869 5867 5866 5864 5863 5861 5860 5860 5859 5858 5858 5858 5857 5856 5856 5855 5855 5855 5854 5853 5852 5852 5851 5850 5850 5849 5848 5847 5846 5845 5845 5845 5845 5844 5844 5844
5880 5880 5880 5880 5879 5878 5877 5876 5874 5873 5871 5869 5868 5866 5864 5862 5860 5859 5858 5857 5857 5856 5855 5854 5853 5853 5852 5852 5851 5850 5850 5849 5849 5848 5847 5846 5846 5845 5844 5844 5842 5841 5841 5841 5841 5840 5840 5840 5840
5878 5878 5878 5878 5877 5876 5875 5874 5872 5870 5868 5866 5864 5863 5861 5859 5857 5856 5855 5854 5853 5852 5851 5850 5849 5848 5848 5847 5847 5846 5845 5844 5844 5843 5842 5841 5841 5840 5840 5839 5838 5837 5837 5837 5836 5836 5835 5835 5835
5877 5877 5877 5876 5875 5874 5873 5871 5870 5868 5866 5864 5861 5859 5858 5856 5855 5853 5852 5851 5849 5848 5847 5845 5845 5844 5843 5843 5842 5842 5840 5839 5839 5838 5837 5836 5835 5835 5834 5834 5833 5832 5832 5832 5831 5831 5831 5830 5830
5876 5876 5874 5874 5873 5872 5870 5869 5867 5864 5863 5861 5858 5856 5854 5853 5851 5849 5848 5846 5845 5843 5842 5842 5841 5840 5839 5838 5838 5837 5836 5835 5834 5833 5832 5831 5830 5830 5829 5829 5829 5828 5828 5827 5826 5826 5826 5826 5825
5874 5873 5872 5871 5871 5869 5867 5866 5864 5862 5860 5858 5855 5852 5851 5849 5847 5845 5844 5842 5840 5839 5838 5837 5836 5835 5834 5833 5833 5832 5831 5830 5829 5828 5827 5826 5826 5825 5824 5824 5824 5823 5822 5822 5821 5820 5821 5821 5821
5873 5872 5871 5870 5868 5867 5865 5863 5861 5858 5855 5853 5851 5849 5848 5845 5843 5841 5840 5838 5837 5835 5834 5832 5831 5830 5829 5829 5828 5827 5826 5825 5824 5823 5822 5822 5821 5820 5819 5819 5818 5818 5817 5816 5815 5815 5816 5816 5815
5871 5871 5870 5869 5866 5865 5864 5860 5858 5855 5852 5850 5848 5846 5844 5842 5840 5838 5836 5834 5832 5830 5829 5827 5826 5824 5823 5823 5822 5821 5820 5820 5819 5818 5817 5816 5815 5814 5814 5813 5812 5812 5811 5811 5810 5810 5810 5810 5810
5870 5869 5868 5867 5864 5862 5861 5858 5855 5852 5849 5848 5846 5843 5841 5838 5836 5834 5832 5829 5827 5825 5824 5822 5821 5819 5818 5817 5817 5816 5815 5814 5813 5812 5812 5811 5809 5808 5807 5806 5806 5805 5805 5805 5805 5805 5804 5804 5804
5868 5867 5865 5864 5862 5860 5858 5856 5852 5849 5847 5844 5842 5840 5838 5835 5833 5831 5828 5825 5823 5821 5818 5816 5815 5813 5812 5812 5811 5811 5810 5809 5808 5807 5806 5804 5803 5802 5801 5800 5799 5798 5799 5799 5798 5798 5798 5798 5797
5866 5865 5863 5862 5860 5858 5856 5853 5850 5847 5843 5841 5840 5837 5834 5832 5830 5827 5824 5821 5819 5816 5814 5811 5809 5808 5807 5806 5805 5805 5805 5804 5803 5801 5800 5798 5797 5796 5794 5793 5793 5792 5793 5792 5792 5792 5791 5791 5791
5864 5863 5861 5860 5858 5855 5852 5849 5847 5844 5841 5839 5836 5833 5830 5828 5826 5823 5819 5816 5813 5811 5808 5806 5804 5802 5801 5800 5799 5799 5798 5798 5796 5795 5794 5793 5791 5790 5788 5787 5787 5787 5786 5786 5785 5785 5785 5785 5784
5862 5860 5858 5857 5855 5853 5849 5847 5844 5841 5838 5836 5834 5831 5828 5825 5822 5819 5815 5811 5808 5805 5803 5800 5799 5797 5795 5794 5793 5793 5792 5791 5790 5789 5787 5786 5785 5784 5783 5782 5781 5780 5780 5780 5779 5779 5779 5778 5778
5859 5858 5856 5854 5852 5849 5847 5843 5841 5838 5835 5833 5831 5828 5825 5821 5818 5814 5810 5806 5803 5800 5797 5795 5793 5792 5790 5789 5788 5787 5787 5785 5785 5783 5782 5780 5779 5778 5777 5775 5775 5774 5773 5773 5772 5772 5771 5771 5771
5856 5855 5853 5851 5849 5847 5844 5841 5838 5835 5832 5830 5828 5824 5821 5817 5814 5810 5805 5801 5798 5795 5792 5790 5787 5785 5785 5784 5783 5782 5782 5781 5780 5778 5776 5775 5773 5772 5770 5769 5768 5767 5767 5766 5766 5765 5765 5765 5764
5853 5852 5851 5848 5846 5844 5842 5839 5835 5832 5830 5827 5824 5821 5817 5814 5810 5806 5802 5799 5795 5790 5788 5785 5783 5781 5780 5779 5778 5778 5777 5776 5775 5773 5771 5770 5768 5766 5764 5763 5762 5761 5761 5760 5760 5759 5758 5758 5757
5850 5849 5848 5845 5842 5840 5838 5835 5833 5829 5827 5824 5821 5818 5814 5810 5807 5803 5798 5796 5792 5788 5784 5782 5779 5778 5777 5775 5774 5773 5773 5771 5770 5768 5766 5764 5762 5760 5759 5757 5756 5756 5755 5754 5753 5752 5752 5751 5751
5847 5846 5845 5842 5840 5838 5835 5832 5830 5827 5824 5821 5818 5815 5811 5808 5804 5800 5796 5793 5789 5785 5782 5779 5777 5775 5773 5772 5771 5770 5768 5767 5764 5762 5760 5758 5756 5755 5753 5752 5751 5751 5749 5748 5747 5746 5746 5745 5744
5844 5842 5841 5839 5837 5835 5833 5830 5827 5824 5822 5819 5815 5812 5809 5805 5802 5798 5794 5791 5787 5783 5780 5777 5775 5772 5770 5769 5767 5766 5764 5762 5759 5757 5755 5753 5751 5749 5748 5746 5745 5745 5744 5743 5742 5741 5740 5739 5738
5842 5840 5839 5837 5834 5832 5831 5828 5825 5822 5819 5816 5812 5810 5807 5803 5799 5796 5792 5788 5785 5781 5778 5774 5772 5770 5768 5766 5763 5761 5759 5757 5754 5752 5750 5747 5745 5744 5742 5740 5739 5739 5738 5737 5736 5735 5734 5733 5732
5839 5838 5835 5833 5831 5830 5827 5827 5822 5819 5816 5813 5810 5807 5804 5800 5797 5793 5790 5786 5783 5779 5776 5773 5771 5768 5765 5762 5760 5758 5755 5753 5750 5748 5745 5743 5740 5738 5737 5736 5735 5734 5733 5732 5731 5730 5728 5727 5725
5835 5834 5833 5831 5829 5827 5824 5825 5819 5816 5814 5811 5808 5804 5801 5798 5794 5791 5788 5784 5781 5778 5775 5772 5769 5766 5763 5760 5757 5755 5752 5749 5746 5744 5741 5738 5736 5734 5732 5731 5730 5729 5728 5727 5725 5724 5722 5721 5719